TURKU/ABO current weather conditions

sailwx.info

Wind from 230 at 15 knots

Air temperature 6.0° C
Visibility: greater than 5.4 NM
Dewpoint 4.0° C

Last reported at 2019-Dec-08 22:50 UTC.
Time now 2019-Dec-08 23:31 UTC

Location: N 60°31' E 022°16'.
View on Google Maps.

See reports from other nearby stations

  
Tides and Currents Weather Stations Pressure Air Temp Water Temp Dewpoint Dewpoint Depression Visibility Wind Speed Wind Dir Waves Ship Positions
date/time (UTC)wind fromknots sea level pressurealtimeterstation pressurevisibilityair tempwater tempwave heightnotes
2019-Dec-08 22:50 230 15 5.4 6.0
2019-Dec-08 22:20 240 14 5.4 6.0
2019-Dec-08 21:50 230 14 5.4 7.0
2019-Dec-08 21:20 230 15 5.4 7.0
2019-Dec-08 20:50 230 13 5.4 7.0
2019-Dec-08 20:20 230 14 5.4 7.0 Light rain showers.
2019-Dec-08 19:50 220 13 3.2 6.0 Rain showers.
2019-Dec-08 19:20 210 13 3.8 6.0 Rain showers.
2019-Dec-08 18:50 150 6 3.8 4.0 Light rain.
2019-Dec-08 18:20 140 6 2.7 2.0 Light rain.
2019-Dec-08 17:50 130 9 2.7 1.0 Light rain.
2019-Dec-08 17:20 130 9 2.4 1.0 Heavy drizzle.
2019-Dec-08 16:50 120 9 3.2 1.0 Light ice pellets.
2019-Dec-08 16:20 130 8 2.2-0.0 Light snow.
2019-Dec-08 15:50 130 7 1.3-0.0 Light snow.
2019-Dec-08 15:20 130 6 1.7-0.0 Light snow.
2019-Dec-08 14:50 140 6 2.7 1.0 Light rain snow.
2019-Dec-08 14:20 170 6 3.8 2.0 Light rain.
2019-Dec-08 13:50 170 5 5.4 2.0 Light rain.
2019-Dec-08 13:20 150 4 5.4 2.0
2019-Dec-08 12:50 190 4 5.4 2.0
2019-Dec-08 12:20 160 5 5.4 2.0
2019-Dec-08 11:50 180 5 5.4 2.0
2019-Dec-08 11:20 200 5 5.4 2.0
2019-Dec-08 10:50 200 5 5.4 1.0
2019-Dec-08 10:20 170 4 5.4 1.0
2019-Dec-08 09:50 220 6 5.4 1.0
2019-Dec-08 09:20 230 5 5.4-0.0
2019-Dec-08 08:50 240 6 5.4 1.0
2019-Dec-08 08:20 240 6 5.4 1.0
2019-Dec-08 07:50 240 8 5.4 1.0
2019-Dec-08 07:20 230 5 5.4 1.0
2019-Dec-08 06:50 260 7 5.4 1.0
2019-Dec-08 06:20 260 6 5.4-0.0
2019-Dec-08 05:50 250 6 5.4-0.0
2019-Dec-08 05:20 250 6 5.4-0.0
2019-Dec-08 04:50 260 6 5.4-0.0
2019-Dec-08 04:20 250 7 5.4 1.0
2019-Dec-08 03:50 260 6 5.4 1.0
2019-Dec-08 03:20 260 6 5.4 1.0
2019-Dec-08 02:50 280 6 5.4 1.0
2019-Dec-08 01:50 280 8 5.4 2.0
2019-Dec-08 01:20 280 8 5.4 2.0
2019-Dec-08 00:50 280 9 5.4 2.0
2019-Dec-08 00:20 280 8 5.4 2.0
2019-Dec-07 23:50 290 8 5.4 2.0
2019-Dec-07 23:20 290 6 5.4 2.0
2019-Dec-07 22:50 300 7 5.4 2.0
2019-Dec-07 22:20 290 7 5.4 2.0
2019-Dec-07 21:50 290 7 5.4 2.0
2019-Dec-07 21:20 290 7 5.4 2.0 Drizzle.
2019-Dec-07 20:50 290 7 5.4 2.0 Light rain.
2019-Dec-07 20:20 310 7 5.4 2.0 Light drizzle.
2019-Dec-07 19:50 300 7 5.4 2.0 Light drizzle.
2019-Dec-07 19:20 320 6 5.4 2.0
2019-Dec-07 18:50 320 7 5.4 2.0
2019-Dec-07 18:20 320 7 5.4 2.0
2019-Dec-07 17:50 320 9 5.4 2.0
2019-Dec-07 17:20 310 7 5.4 1.0
2019-Dec-07 16:50 320 7 5.4 1.0 Light rain showers.
2019-Dec-07 16:20 320 8 2.7 2.0 Drizzle.
2019-Dec-07 15:50 330 8 3.2 4.0 Light rain showers.
2019-Dec-07 15:20 230 8 2.7 6.0 Light rain showers.
2019-Dec-07 14:50 230 8 2.3 6.0 Mist.
2019-Dec-07 14:20 230 11 5.4 6.0 Drizzle.
2019-Dec-07 13:50 220 9 2.2 6.0 Heavy drizzle.
2019-Dec-07 13:20 220 9 1.8 6.0 Heavy drizzle.
2019-Dec-07 12:50 210 11 1.2 6.0 Light rain.
2019-Dec-07 12:20 210 9 1.2 6.0 Drizzle.
2019-Dec-07 11:50 200 8 1.4 6.0 Light rain showers.
2019-Dec-07 11:20 210 9 2.5 6.0 Light drizzle.
2019-Dec-07 10:50 210 8 1.4 6.0 Heavy drizzle.
2019-Dec-07 10:20 210 7 1.4 6.0 Rain showers.
2019-Dec-07 09:50 220 8 1.2 6.0 Light rain.
2019-Dec-07 09:20 220 9 1.1 6.0 Light rain.
2019-Dec-07 08:50 220 12 1.2 6.0 Drizzle.
2019-Dec-07 08:20 220 11 1.3 6.0 Light rain.
2019-Dec-07 07:50 210 9 1.2 6.0 Heavy drizzle.
2019-Dec-07 07:20 210 11 1.5 6.0 Light rain.
2019-Dec-07 06:50 190 8 2.3 6.0 Heavy drizzle.
2019-Dec-07 06:20 170 6 2.5 6.0 Rain.
2019-Dec-07 05:50 130 6 3.8 5.0 Light rain showers.
2019-Dec-07 05:20 110 6 3.2 4.0 Rain showers.
2019-Dec-07 04:50 110 6 3.2 4.0 Rain showers.
2019-Dec-07 04:20 120 6 3.8 4.0 Rain showers.
2019-Dec-07 03:50 120 5 3.8 4.0 Light rain.
2019-Dec-07 03:20 120 5 3.2 3.0 Light rain showers.
2019-Dec-07 02:50 120 4 5.4 3.0 Light rain showers.
2019-Dec-07 02:20 130 4 5.4 3.0
2019-Dec-07 01:50 110 4 5.4 2.0
2019-Dec-07 01:20 150 4 5.4 3.0
2019-Dec-07 00:50 170 2 5.4 4.0
2019-Dec-07 00:20 5.4 4.0
2019-Dec-06 23:50 230 4 5.4 4.0
2019-Dec-06 23:20 250 5 5.4 4.0